Station MIXA2 - Midway Island, AK Image indicating link to RSS feed of recent meteorological observations for station MIXA2


Conditions at MIXA2 as of
(6:33 pm AKDT on 04/14/2024)
0233 GMT on 04/15/2024:
     

Click on the graph icon in the table below to see a time series plot of the last five days of that observation.

5-day plot - Wind Direction Wind Direction (WDIR): NW ( 320 deg true )
5-day plot - Wind Speed Wind Speed (WSPD): 5.1 kts
5-day plot - Wind Gust Wind Gust (GST): 8.0 kts
5-day plot - Atmospheric Pressure Atmospheric Pressure (PRES):29.94 in
5-day plot - Air Temperature Air Temperature (ATMP): 41.7 °F
5-day plot - Dew Point Dew Point (DEWP): 37.2 °F
5-day plot - Wind Chill Wind Chill (CHILL): 36.9 °F
5-day plot - Wind Speed at 10 Meters Wind Speed at 10 meters (WSPD10M): 5.8 kts
5-day plot - Wind Speed at 20 Meters Wind Speed at 20 meters (WSPD20M): 5.8 kts
5-day plot -  Wind Speed, Wind Gust and Atmospheric Pressure Combined plot of Wind Speed, Gust, and Air Pressure
Previous observations
TIME
(AKDT)
5-day plot - Wind Direction
WDIR
 
5-day plot - Wind Speed
WSPD
kts
5-day plot - Wind Gust
GST
kts
5-day plot - Wave Height
WVHT
ft
5-day plot - Dominant Wave Period
DPD
sec
5-day plot - Average Wave Period
APD
sec
5-day plot - Mean Wave Direction
MWD
 
5-day plot - Atmospheric Pressure
PRES
in
5-day plot - Pressure Tendency
PTDY
in
5-day plot - Air Temperature
ATMP
°F
5-day plot - Water Temperature
WTMP
°F
5-day plot - Dew Point
DEWP
°F
5-day plot - Salinity
SAL
psu
5-day plot - Visibility
VIS
nmi
5-day plot - Tide (above MLLW)
TIDE
ft
2024-04-14 06:23 pm NW 4.1 8.0----29.94- 41.5- 37.4---
2024-04-14 06:13 pm NW 5.1 8.0----29.94- 40.8- 36.3---
2024-04-14 06:03 pmNNW 5.1 8.0----29.94- 40.6- 35.6---
2024-04-14 05:53 pmNNW 5.1 8.0----29.94- 41.0- 36.9---
2024-04-14 05:43 pm NW 7.0 9.9----29.94- 40.5- 36.0---
2024-04-14 05:33 pm NW 6.0 8.9----29.94- 40.1- 35.6---
2024-04-14 05:23 pm NW 6.0 9.9----29.93- 40.1- 35.1---
2024-04-14 05:13 pm NW 7.0 9.9----29.93- 39.9- 34.5---
2024-04-14 05:03 pm NW 8.0 9.9----29.93- 39.6- 33.3---
2024-04-14 04:53 pm NW 8.9 11.1----29.93- 39.7- 34.7---
2024-04-14 04:43 pmWNW 6.0 8.0----29.93- 39.9- 36.7---
2024-04-14 04:33 pm W 5.1 7.0----29.93- 39.4- 35.8---
2024-04-14 04:23 pmWNW 5.1 6.0----29.93- 39.4- 35.6---
2024-04-14 04:13 pm W 6.0 8.0----29.93- 39.0- 35.2---
2024-04-14 03:53 pm W 8.0 11.1----29.93- 38.8- 35.2---
2024-04-14 03:43 pmWNW 8.0 11.1----29.93- 38.8- 34.2---
2024-04-14 03:33 pmWNW 8.9 12.0----29.93- 38.7- 34.2---
2024-04-14 03:23 pmWNW 8.0 11.1----29.92- 38.5- 33.8---
2024-04-14 03:13 pmWNW 8.9 12.0----29.92- 38.7- 34.2---
2024-04-14 03:03 pmWNW 9.9 12.0----29.92- 38.8- 34.2---
2024-04-14 02:53 pm NW 8.9 12.0----29.92- 39.0- 34.5---
2024-04-14 02:43 pm NW 9.9 12.0----29.92- 38.5- 33.8---
2024-04-14 02:33 pm NW 8.9 12.0----29.92- 38.5- 33.8---
2024-04-14 02:23 pm NW 8.9 11.1----29.92- 38.3- 33.8---
2024-04-14 02:13 pm NW 8.9 11.1----29.92- 38.3- 33.8---
2024-04-14 02:03 pm NW 8.9 12.0----29.92- 38.7- 35.4---
2024-04-14 01:53 pm NW 8.9 11.1----29.91- 38.1- 34.5---
2024-04-14 01:43 pm NW 8.9 11.1----29.91- 37.8- 34.2---
2024-04-14 01:33 pm NW 8.9 11.1----29.91- 37.8- 35.1---
2024-04-14 01:23 pm NW 8.9 11.1----29.91- 37.9- 35.6---
2024-04-14 01:13 pm NW 8.9 11.1----29.91- 37.2- 34.5---
2024-04-14 01:03 pm NW 8.0 9.9----29.91- 37.2- 34.5---
2024-04-14 12:53 pm NW 8.9 11.1----29.91- 37.2- 35.1---
2024-04-14 12:43 pm NW 9.9 11.1----29.91- 36.9- 35.1---
2024-04-14 12:33 pm NW 9.9 13.0----29.91- 36.5- 34.7---
2024-04-14 12:23 pm NW 11.1 13.0----29.91- 36.9- 35.2---
2024-04-14 12:13 pm NW 11.1 13.0----29.90- 36.7- 34.5---
2024-04-14 12:03 pm NW 9.9 13.0----29.90- 36.5- 34.7---
2024-04-14 11:53 am NW 11.1 14.0----29.90- 36.1- 34.5---
2024-04-14 11:43 am NW 12.0 15.0----29.90- 36.1- 34.9---
2024-04-14 11:33 am NW 12.0 15.9----29.89- 35.8- 34.5---
2024-04-14 11:23 am NW 12.0 15.0----29.89- 35.8- 34.5---
2024-04-14 11:13 am NW 11.1 15.0----29.89- 36.0- 34.9---
2024-04-14 11:03 am NW 11.1 13.0----29.89- 35.8- 34.7---
2024-04-14 10:53 am NW 9.9 13.0----29.89- 35.6- 34.9---
2024-04-14 10:43 am NW 8.0 9.9----29.89- 35.4- 34.7---
2024-04-14 10:33 am NW 6.0 8.9----29.88- 35.1- 34.0---
2024-04-14 10:23 amWNW 4.1 8.0----29.88- 35.4- 34.3---
2024-04-14 10:13 am W 4.1 8.0----29.88- 35.1- 34.0---
2024-04-14 10:03 am W 7.0 9.9----29.88- 34.5- 33.4---
2024-04-14 09:53 am W 9.9 14.0----29.88- 34.9- 33.6---
2024-04-14 09:43 am W 8.9 12.0----29.87- 36.7- 33.8---
2024-04-14 09:33 am W 8.9 12.0----29.87- 36.5- 34.2---
2024-04-14 09:23 am W 8.9 12.0----29.87- 36.3- 34.0---
2024-04-14 09:13 am W 8.9 11.1----29.87- 36.1- 34.3---
2024-04-14 09:03 am W 8.9 11.1----29.87- 36.3- 35.1---
2024-04-14 08:53 am W 9.9 13.0----29.87- 36.3- 35.2---
2024-04-14 08:43 am W 8.9 12.0----29.86- 36.1- 34.9---
2024-04-14 08:33 am W 8.0 11.1----29.86- 36.3- 35.1---
2024-04-14 08:23 amWNW 8.9 11.1----29.86- 36.3- 34.5---
2024-04-14 08:13 amWNW 8.9 11.1----29.87- 36.0- 34.3---
2024-04-14 08:03 amWNW 8.9 12.0----29.87- 35.8- 34.0---
2024-04-14 07:53 amWNW 9.9 13.0----29.87- 36.0- 34.7---
2024-04-14 07:43 amWNW 9.9 13.0----29.87- 36.1- 34.5---
2024-04-14 07:33 amWNW 8.9 12.0----29.87- 36.3- 34.2---
2024-04-14 07:23 amWNW 8.9 12.0----29.87- 36.3- 34.2---
2024-04-14 07:13 amWNW 8.9 11.1----29.87- 36.5- 34.7---
2024-04-14 07:03 amWNW 8.0 11.1----29.87- 36.3- 34.5---
2024-04-14 06:53 am NW 9.9 13.0----29.86- 36.3- 34.5---
2024-04-14 06:43 amWNW 8.9 13.0----29.86- 36.3- 34.7---
2024-04-14 06:33 amWNW 8.9 9.9----29.86- 36.0- 34.7---
2024-04-14 06:23 amWNW 6.0 8.9----29.87- 35.8- 34.7---
2024-04-14 06:13 am W 5.1 8.0----29.87- 35.4- 34.7---
2024-04-14 06:03 amWSW 6.0 8.0----29.88- 35.2- 34.5---
2024-04-14 05:53 am SW 9.9 12.0----29.88- 35.1- 34.0---
2024-04-14 05:43 am SW 8.9 13.0----29.88- 35.6- 34.5---
2024-04-14 05:33 amSSW 11.1 17.1----29.87- 36.0- 34.3---
2024-04-14 05:23 am S 12.0 19.0----29.87- 36.5- 34.2---
2024-04-14 05:13 amESE 9.9 14.0----29.87- 39.2- 34.2---
2024-04-14 05:03 amESE 11.1 13.0----29.87- 39.2- 33.8---
2024-04-14 04:53 amESE 11.1 14.0----29.87- 39.0- 34.3---
2024-04-14 04:43 amESE 9.9 13.0----29.88- 38.8- 34.2---
2024-04-14 04:33 amESE 12.0 14.0----29.88- 38.7- 34.2---
2024-04-14 04:23 amESE 12.0 15.0----29.88- 38.8- 34.7---
2024-04-14 04:13 amESE 11.1 13.0----29.88- 38.8- 34.7---
2024-04-14 04:03 amESE 9.9 13.0----29.88- 38.8- 34.7---
2024-04-14 03:53 am SE 7.0 12.0----29.88- 38.5- 34.9---
2024-04-14 03:43 am SE 8.9 11.1----29.89- 38.1- 34.3---
2024-04-14 03:33 amESE 9.9 12.0----29.89- 37.6- 34.9---
2024-04-14 03:23 amESE 11.1 14.0----29.89- 37.6- 34.7---
2024-04-14 03:13 amESE 13.0 15.9----29.89- 38.1- 34.9---
2024-04-14 03:03 am SE 11.1 15.9----29.89- 37.8- 36.0---
2024-04-14 02:53 am SE 13.0 15.0----29.89- 37.4- 35.1---
2024-04-14 02:43 amESE 13.0 17.1----29.89- 37.6- 35.2---
2024-04-14 02:33 amESE 15.0 20.0----29.89- 37.4- 35.6---
2024-04-14 02:23 am SE 12.0 17.1----29.89- 37.8- 35.6---
2024-04-14 02:13 amESE 8.0 11.1----29.88- 37.2- 34.9---
2024-04-14 02:03 am E 8.0 9.9----29.89- 36.5- 34.3---
2024-04-14 01:53 am E 11.1 15.0----29.89- 36.3- 35.1---
2024-04-14 01:43 am E 13.0 15.9----29.89- 35.8- 34.2---
2024-04-14 01:33 am E 14.0 15.9----29.89- 36.3- 34.7---
2024-04-14 01:23 amESE 12.0 17.1----29.90- 37.4- 34.5---
2024-04-14 01:13 amESE 8.9 13.0----29.90- 37.2- 34.5---
2024-04-14 01:03 am SE 8.0 11.1----29.90- 36.9- 34.7---
2024-04-14 12:53 am S 7.0 15.0----29.89- 36.7- 34.5---
2024-04-14 12:43 amSSW 8.0 12.0----29.89- 38.1- 36.0---
2024-04-14 12:33 amSSE 13.0 18.1----29.89- 37.4- 35.6---
2024-04-14 12:23 am SE 15.9 20.0----29.89- 36.9- 35.1---
2024-04-14 12:14 am SE 18.1 22.9----29.89- 38.5- 36.1---
2024-04-14 12:03 am SE 18.1 24.1----29.88- 37.8- 36.0---
2024-04-13 11:53 pmSSE 20.0 26.0----29.88- 37.4- 35.6---
2024-04-13 11:43 pm SE 14.0 19.0----29.88- 38.7- 36.3---
2024-04-13 11:33 pm S 8.0 9.9----29.88- 39.0- 35.4---
2024-04-13 11:23 pmSSE 6.0 8.0----29.88- 39.2- 35.6---
2024-04-13 11:13 pmSSE 6.0 8.0----29.88- 39.0- 35.8---
2024-04-13 11:03 pmSSE 7.0 8.9----29.88- 39.2- 36.1---
2024-04-13 10:53 pmSSE 7.0 8.9----29.88- 39.2- 36.9---
2024-04-13 10:43 pm SE 12.0 19.0----29.88- 38.3- 36.1---
2024-04-13 10:33 pm SE 8.9 14.0----29.88- 38.7- 36.3---
2024-04-13 10:23 pmSSE 6.0 7.0----29.88- 38.1- 35.4---
2024-04-13 10:13 pmSSE 8.0 9.9----29.88- 37.9- 35.6---
2024-04-13 10:03 pm S 8.9 15.0----29.88- 38.1- 35.2---
2024-04-13 09:53 pmSSE 6.0 8.0----29.88- 39.4- 35.8---
2024-04-13 09:43 pm SE 7.0 8.9----29.87- 39.4- 36.3---
2024-04-13 09:33 pm SE 6.0 7.0----29.88- 39.0- 35.4---
2024-04-13 09:23 pm SE 6.0 8.0----29.88- 39.0- 35.8---
2024-04-13 09:03 pm S 5.1 8.0----29.88- 38.8- 35.2---
2024-04-13 08:53 pm SE 7.0 12.0----29.88- 38.5- 35.6---
2024-04-13 08:43 pm E 8.0 11.1----29.88- 37.2- 35.6---
2024-04-13 08:33 pm E 7.0 9.9----29.88- 37.6- 35.8---
2024-04-13 08:23 pm SE 5.1 8.0----29.88- 37.4- 35.6---
2024-04-13 08:13 pmSSE 8.0 13.0----29.87- 37.4- 35.2---
2024-04-13 08:03 pmSSW 9.9 20.0----29.87- 38.5- 35.8---
2024-04-13 07:53 pm S 12.0 21.0----29.87- 39.0- 35.4---
2024-04-13 07:43 pm S 9.9 13.0----29.86- 38.3- 34.7---
2024-04-13 07:33 pm SW 18.1 24.1----29.85- 37.8- 34.2---
2024-04-13 07:23 pmSSW 12.0 20.0----29.85- 38.7- 36.9---
2024-04-13 07:13 pmSSW 11.1 17.1----29.85- 38.7- 36.3---
2024-04-13 07:03 pm SW 15.0 20.0----29.85- 39.0- 36.1---
2024-04-13 06:53 pm S 5.1 7.0----29.85- 40.3- 36.7---
2024-04-13 06:43 pmSSE 5.1 6.0----29.85- 40.5- 36.9---
2024-04-13 06:33 pmSSE 5.1 6.0----29.85- 40.3- 37.2---
2024-04-13 06:23 pm SE 5.1 7.0----29.85- 40.3- 36.7---
2024-04-13 06:13 pmSSE 5.1 8.0----29.85- 39.9- 36.7---
2024-04-13 06:03 pmESE 2.9 6.0----29.85- 39.4- 36.7---
2024-04-13 05:53 pm S 2.9 4.1----29.85- 39.2- 36.5---